QPF
0.00 0.00 0.01 0.01 0.01 0.01 0.01 0.01 0.01 0.01 0.00 0.01 0.01 0.01 0.01 0.00 0.00 0.00 0.00 0.00 0.01 0.01 0.01 0.01 0.02 0.02 0.01 0.02 0.02 0.01 0.01 0.02 0.03 0.03 0.04 0.05 0.07 0.09 0.08 0.06 0.05 0.03 0.02
0.00 0.00 0.01 0.01 0.00 0.00 0.00 0.01 0.01 0.00 0.00 0.00 0.00 0.00 0.00 0.00 0.00 0.00 0.00 0.01 0.01 0.01 0.01 0.01 0.01 0.01 0.01 0.02 0.02 0.01 0.01 0.02 0.03 0.04 0.05 0.07 0.08 0.08 0.10 0.06 0.04 0.03 0.03
0.00 0.01 0.01 0.01 0.00 0.00 0.00 0.00 0.00 0.00 0.00 0.00 0.00 0.00 0.01 0.01 0.01 0.01 0.01 0.01 0.01 0.01 0.01 0.01 0.01 0.01 0.01 0.01 0.02 0.01 0.02 0.03 0.04 0.04 0.06 0.08 0.05 0.04 0.06 0.05 0.03 0.03 0.02
0.00 0.01 0.01 0.01 0.01 0.00 0.00 0.00 0.00 0.00 0.00 0.00 0.00 0.00 0.01 0.01 0.01 0.01 0.01 0.01 0.01 0.01 0.01 0.01 0.01 0.01 0.01 0.02 0.02 0.01 0.02 0.02 0.04 0.03 0.06 0.06 0.04 0.03 0.05 0.04 0.04 0.03 0.02
0.00 0.00 0.01 0.01 0.00 0.00 0.00 0.00 0.00 0.00 0.00 0.00 0.00 0.00 0.01 0.01 0.01 0.01 0.01 0.01 0.01 0.01 0.01 0.01 0.01 0.01 0.01 0.01 0.01 0.02 0.02 0.03 0.02 0.02 0.03 0.04 0.06 0.05 0.05 0.05 0.04 0.04 0.02
0.00 0.01 0.01 0.01 0.00 0.00 0.00 0.00 0.00 0.00 0.00 0.00 0.00 0.01 0.01 0.01 0.01 0.01 0.01 0.01 0.01 0.01 0.01 0.01 0.01 0.02 0.02 0.02 0.02 0.02 0.02 0.03 0.02 0.02 0.02 0.03 0.05 0.05 0.05 0.05 0.05 0.04 0.04
0.01 0.01 0.01 0.00 0.00 0.00 0.00 0.00 0.00 0.00 0.00 0.00 0.00 0.01 0.01 0.01 0.01 0.01 0.01 0.01 0.01 0.01 0.01 0.01 0.01 0.01 0.02 0.03 0.04 0.04 0.03 0.03 0.02 0.02 0.02 0.03 0.05 0.05 0.06 0.06 0.06 0.05 0.05
0.01 0.01 0.01 0.00 0.00 0.00 0.00 0.01 0.01 0.01 0.01 0.00 0.01 0.01 0.01 0.01 0.01 0.01 0.00 0.01 0.00 0.01 0.01 0.00 0.01 0.01 0.02 0.03 0.05 0.05 0.05 0.03 0.01 0.01 0.02 0.05 0.04 0.04 0.05 0.04 0.06 0.06 0.04
0.00 0.00 0.01 0.01 0.01 0.01 0.01 0.01 0.01 0.01 0.01 0.01 0.01 0.01 0.01 0.01 0.01 0.01 0.01 0.01 0.00 0.01 0.01 0.01 0.01 0.01 0.01 0.02 0.03 0.04 0.05 0.04 0.01 0.01 0.01 0.03 0.04 0.05 0.04 0.04 0.05 0.07 0.05
0.01 0.04 0.05 0.04 0.02 0.01 0.01 0.01 0.01 0.01 0.01 0.01 0.01 0.01 0.01 0.01 0.01 0.01 0.01 0.01 0.01 0.01 0.01 0.01 0.02 0.01 0.01 0.02 0.02 0.03 0.04 0.03 0.01 0.00 0.01 0.02 0.03 0.06 0.06 0.07 0.06 0.06 0.05
0.05 0.12 0.12 0.07 0.04 0.02 0.02 0.01 0.02 0.02 0.01 0.01 0.02 0.02 0.01 0.02 0.02 0.02 0.01 0.01 0.01 0.02 0.01 0.01 0.01 0.00 0.01 0.02 0.03 0.04 0.02 0.01 0.01 0.01 0.02 0.02 0.04 0.08 0.09 0.09 0.11 0.09 0.08
0.04 0.09 0.14 0.09 0.06 0.04 0.03 0.03 0.04 0.03 0.02 0.02 0.03 0.03 0.03 0.03 0.03 0.02 0.01 0.01 0.02 0.01 0.01 0.01 0.00 0.00 0.00 0.01 0.02 0.02 0.01 0.01 0.01 0.01 0.02 0.02 0.05 0.09 0.10 0.09 0.11 0.11 0.11
0.04 0.04 0.05 0.05 0.06 0.04 0.04 0.04 0.03 0.03 0.03 0.03 0.03 0.04 0.04 0.02 0.02 0.02 0.02 0.02 0.03 0.02 0.01 0.01 0.00 0.00 0.00 0.01 0.02 0.02 0.01 0.01 0.01 0.00 0.02 0.04 0.07 0.11 0.10 0.09 0.09 0.09 0.08
0.07 0.08 0.05 0.05 0.05 0.04 0.04 0.03 0.02 0.02 0.02 0.03 0.04 0.04 0.05 0.04 0.03 0.03 0.03 0.03 0.03 0.03 0.02 0.01 0.01 0.01 0.01 0.01 0.02 0.02 0.01 0.01 0.01 0.02 0.04 0.05 0.07 0.10 0.11 0.10 0.08 0.08 0.08
0.12 0.15 0.11 0.08 0.07 0.06 0.05 0.04 0.02 0.02 0.01 0.03 0.05 0.04 0.05 0.06 0.05 0.04 0.02 0.02 0.02 0.02 0.02 0.01 0.01 0.02 0.03 0.02 0.02 0.03 0.02 0.01 0.02 0.03 0.05 0.05 0.05 0.07 0.10 0.10 0.09 0.08 0.08
0.21 0.23 0.23 0.22 0.19 0.13 0.07 0.05 0.04 0.03 0.03 0.03 0.04 0.04 0.05 0.06 0.07 0.06 0.04 0.04 0.03 0.02 0.02 0.01 0.01 0.01 0.02 0.02 0.02 0.02 0.03 0.03 0.02 0.02 0.04 0.06 0.05 0.05 0.07 0.08 0.09 0.10 0.08
0.20 0.25 0.27 0.35 0.35 0.20 0.11 0.08 0.07 0.06 0.04 0.05 0.04 0.04 0.06 0.05 0.06 0.06 0.06 0.05 0.03 0.02 0.02 0.02 0.01 0.02 0.02 0.02 0.02 0.03 0.04 0.04 0.03 0.03 0.03 0.05 0.06 0.05 0.05 0.06 0.06 0.07 0.08
0.20 0.21 0.19 0.18 0.27 0.24 0.13 0.09 0.07 0.07 0.07 0.07 0.06 0.06 0.05 0.04 0.04 0.04 0.05 0.04 0.02 0.02 0.03 0.03 0.02 0.01 0.02 0.03 0.03 0.03 0.03 0.03 0.03 0.03 0.03 0.04 0.08 0.07 0.07 0.07 0.05 0.05 0.06
0.20 0.18 0.16 0.15 0.17 0.20 0.15 0.12 0.13 0.11 0.09 0.09 0.08 0.07 0.05 0.05 0.05 0.06 0.05 0.04 0.02 0.02 0.03 0.02 0.02 0.01 0.03 0.03 0.02 0.02 0.02 0.02 0.03 0.03 0.03 0.04 0.06 0.07 0.08 0.06 0.04 0.05 0.06
0.21 0.22 0.17 0.19 0.20 0.20 0.16 0.15 0.14 0.11 0.10 0.08 0.09 0.09 0.07 0.06 0.06 0.05 0.04 0.03 0.02 0.03 0.04 0.03 0.03 0.02 0.02 0.02 0.01 0.01 0.01 0.01 0.01 0.02 0.02 0.03 0.03 0.04 0.04 0.06 0.07 0.05 0.05
0.18 0.19 0.16 0.17 0.19 0.17 0.14 0.13 0.13 0.10 0.09 0.08 0.08 0.06 0.07 0.07 0.06 0.05 0.04 0.03 0.02 0.03 0.03 0.03 0.02 0.01 0.01 0.01 0.02 0.02 0.02 0.01 0.00 0.01 0.02 0.02 0.02 0.03 0.04 0.04 0.05 0.05 0.07
0.10 0.12 0.12 0.12 0.16 0.13 0.12 0.14 0.13 0.11 0.09 0.08 0.08 0.06 0.05 0.05 0.04 0.04 0.04 0.03 0.03 0.03 0.03 0.02 0.02 0.01 0.01 0.01 0.02 0.02 0.03 0.03 0.01 0.01 0.01 0.01 0.02 0.03 0.04 0.04 0.05 0.05 0.06
0.06 0.09 0.09 0.10 0.12 0.15 0.14 0.14 0.14 0.12 0.09 0.07 0.07 0.05 0.04 0.03 0.02 0.02 0.02 0.02 0.02 0.02 0.02 0.01 0.01 0.01 0.01 0.00 0.01 0.01 0.01 0.02 0.02 0.01 0.01 0.01 0.01 0.02 0.03 0.04 0.03 0.03 0.04
0.05 0.08 0.09 0.11 0.12 0.14 0.15 0.12 0.11 0.08 0.07 0.07 0.07 0.06 0.05 0.04 0.03 0.02 0.01 0.02 0.02 0.02 0.01 0.00 0.00 0.00 0.00 0.00 0.00 0.00 0.00 0.01 0.01 0.01 0.01 0.00 0.00 0.01 0.01 0.01 0.01 0.02 0.02
0.03 0.05 0.08 0.11 0.13 0.14 0.15 0.15 0.15 0.11 0.09 0.09 0.07 0.05 0.04 0.03 0.02 0.01 0.01 0.01 0.01 0.01 0.01 0.01 0.00 0.00 0.00 0.00 0.00 0.00 0.00 0.00 0.00 0.00 0.01 0.00 0.00 0.00 0.00 0.00 0.00 0.01 0.01
0.02 0.03 0.05 0.07 0.11 0.12 0.16 0.18 0.17 0.13 0.10 0.07 0.06 0.04 0.03 0.03 0.02 0.01 0.01 0.01 0.01 0.01 0.01 0.01 0.00 0.00 0.00 0.00 0.00 0.00 0.00 0.00 0.00 0.00 0.01 0.01 0.01 0.00 0.00 0.00 0.00 0.00 0.01
MSLP
1011.23 1011.37 1011.67 1012.09 1012.56 1012.98 1013.32 1013.53 1013.62 1013.63 1013.64 1013.70 1013.86 1014.13 1014.49 1014.90 1015.30 1015.64 1015.87 1015.99 1016.03 1016.01 1015.97 1015.97 1016.00 1016.07 1016.16 1016.25 1016.31 1016.34 1016.33 1016.31 1016.30 1016.33 1016.41 1016.55 1016.73 1016.93 1017.13 1017.31 1017.46 1017.57 1017.67
1010.74 1011.01 1011.44 1011.99 1012.58 1013.11 1013.53 1013.79 1013.90 1013.92 1013.92 1013.96 1014.09 1014.35 1014.70 1015.11 1015.51 1015.84 1016.07 1016.19 1016.21 1016.18 1016.14 1016.14 1016.19 1016.28 1016.40 1016.52 1016.61 1016.66 1016.66 1016.65 1016.63 1016.66 1016.73 1016.86 1017.04 1017.26 1017.48 1017.68 1017.85 1017.99 1018.10
1010.22 1010.59 1011.15 1011.82 1012.53 1013.17 1013.67 1014.01 1014.18 1014.23 1014.24 1014.28 1014.41 1014.64 1014.97 1015.35 1015.72 1016.03 1016.24 1016.34 1016.36 1016.33 1016.30 1016.31 1016.38 1016.50 1016.64 1016.78 1016.88 1016.93 1016.94 1016.92 1016.90 1016.91 1016.98 1017.11 1017.30 1017.53 1017.77 1018.00 1018.20 1018.37 1018.51
1009.74 1010.21 1010.86 1011.64 1012.44 1013.17 1013.77 1014.18 1014.42 1014.53 1014.58 1014.63 1014.75 1014.96 1015.26 1015.59 1015.93 1016.20 1016.39 1016.49 1016.51 1016.50 1016.50 1016.53 1016.62 1016.75 1016.90 1017.03 1017.13 1017.17 1017.17 1017.14 1017.11 1017.13 1017.20 1017.34 1017.53 1017.77 1018.02 1018.27 1018.50 1018.70 1018.87
1009.41 1009.94 1010.66 1011.50 1012.36 1013.16 1013.83 1014.31 1014.62 1014.79 1014.88 1014.96 1015.08 1015.28 1015.54 1015.84 1016.13 1016.38 1016.55 1016.65 1016.70 1016.72 1016.75 1016.82 1016.92 1017.06 1017.20 1017.31 1017.38 1017.40 1017.38 1017.34 1017.31 1017.33 1017.41 1017.56 1017.76 1018.01 1018.27 1018.53 1018.78 1019.00 1019.19
1009.26 1009.84 1010.59 1011.45 1012.34 1013.17 1013.87 1014.40 1014.76 1014.98 1015.11 1015.23 1015.36 1015.55 1015.78 1016.05 1016.31 1016.54 1016.71 1016.84 1016.92 1016.99 1017.07 1017.17 1017.29 1017.42 1017.54 1017.62 1017.65 1017.63 1017.58 1017.53 1017.51 1017.54 1017.64 1017.81 1018.02 1018.28 1018.54 1018.79 1019.03 1019.26 1019.47
1009.31 1009.91 1010.66 1011.51 1012.38 1013.20 1013.90 1014.45 1014.83 1015.09 1015.27 1015.41 1015.57 1015.76 1015.98 1016.23 1016.47 1016.69 1016.88 1017.04 1017.17 1017.29 1017.42 1017.55 1017.69 1017.81 1017.89 1017.92 1017.90 1017.84 1017.77 1017.72 1017.71 1017.77 1017.90 1018.09 1018.33 1018.58 1018.83 1019.07 1019.29 1019.49 1019.70
1009.50 1010.12 1010.85 1011.66 1012.48 1013.25 1013.91 1014.45 1014.85 1015.13 1015.34 1015.52 1015.70 1015.90 1016.12 1016.36 1016.60 1016.83 1017.03 1017.22 1017.39 1017.57 1017.74 1017.91 1018.05 1018.15 1018.20 1018.18 1018.11 1018.02 1017.93 1017.87 1017.89 1017.99 1018.17 1018.40 1018.66 1018.92 1019.16 1019.37 1019.56 1019.73 1019.90
1009.75 1010.37 1011.08 1011.84 1012.60 1013.30 1013.91 1014.41 1014.80 1015.10 1015.34 1015.55 1015.77 1015.99 1016.22 1016.46 1016.70 1016.93 1017.15 1017.36 1017.57 1017.78 1017.98 1018.16 1018.30 1018.38 1018.39 1018.34 1018.23 1018.11 1018.01 1017.98 1018.04 1018.19 1018.42 1018.71 1019.00 1019.28 1019.51 1019.70 1019.84 1019.97 1020.10
1009.97 1010.60 1011.29 1012.00 1012.69 1013.33 1013.88 1014.33 1014.71 1015.02 1015.28 1015.53 1015.78 1016.04 1016.29 1016.54 1016.78 1017.01 1017.23 1017.44 1017.66 1017.88 1018.09 1018.28 1018.41 1018.47 1018.46 1018.37 1018.24 1018.11 1018.03 1018.02 1018.13 1018.34 1018.64 1018.98 1019.32 1019.62 1019.86 1020.03 1020.14 1020.23 1020.32
1010.09 1010.75 1011.43 1012.11 1012.74 1013.31 1013.80 1014.22 1014.57 1014.89 1015.19 1015.48 1015.77 1016.07 1016.35 1016.61 1016.85 1017.07 1017.27 1017.47 1017.67 1017.88 1018.08 1018.25 1018.37 1018.41 1018.38 1018.29 1018.16 1018.04 1017.98 1018.01 1018.17 1018.44 1018.80 1019.20 1019.59 1019.93 1020.19 1020.35 1020.45 1020.51 1020.57
1010.09 1010.79 1011.48 1012.14 1012.74 1013.25 1013.70 1014.07 1014.41 1014.73 1015.06 1015.40 1015.74 1016.08 1016.40 1016.68 1016.91 1017.11 1017.29 1017.46 1017.62 1017.79 1017.96 1018.11 1018.21 1018.25 1018.22 1018.14 1018.02 1017.93 1017.91 1017.98 1018.18 1018.51 1018.92 1019.37 1019.80 1020.17 1020.46 1020.64 1020.74 1020.78 1020.82
1009.98 1010.73 1011.46 1012.11 1012.69 1013.17 1013.57 1013.92 1014.24 1014.57 1014.92 1015.30 1015.70 1016.08 1016.44 1016.74 1016.98 1017.17 1017.31 1017.43 1017.54 1017.66 1017.79 1017.91 1018.00 1018.04 1018.03 1017.98 1017.91 1017.86 1017.87 1017.99 1018.22 1018.57 1019.01 1019.48 1019.94 1020.34 1020.65 1020.86 1020.97 1021.03 1021.07
1009.84 1010.64 1011.39 1012.06 1012.62 1013.08 1013.46 1013.78 1014.09 1014.42 1014.79 1015.20 1015.64 1016.07 1016.47 1016.80 1017.06 1017.23 1017.34 1017.41 1017.48 1017.55 1017.63 1017.72 1017.81 1017.87 1017.90 1017.89 1017.87 1017.87 1017.93 1018.07 1018.31 1018.66 1019.09 1019.56 1020.02 1020.43 1020.75 1020.98 1021.13 1021.20 1021.26
1009.73 1010.57 1011.35 1012.03 1012.59 1013.03 1013.38 1013.68 1013.97 1014.30 1014.68 1015.12 1015.59 1016.06 1016.50 1016.87 1017.14 1017.31 1017.41 1017.45 1017.46 1017.49 1017.54 1017.61 1017.70 1017.79 1017.86 1017.92 1017.96 1018.02 1018.11 1018.26 1018.49 1018.81 1019.20 1019.62 1020.05 1020.44 1020.76 1021.00 1021.17 1021.28 1021.35
1009.73 1010.58 1011.37 1012.05 1012.60 1013.03 1013.37 1013.65 1013.92 1014.23 1014.61 1015.06 1015.55 1016.06 1016.53 1016.93 1017.23 1017.42 1017.51 1017.53 1017.52 1017.51 1017.53 1017.60 1017.70 1017.82 1017.95 1018.07 1018.19 1018.29 1018.41 1018.56 1018.76 1019.02 1019.33 1019.68 1020.03 1020.37 1020.67 1020.91 1021.09 1021.23 1021.33
1009.85 1010.68 1011.46 1012.13 1012.68 1013.10 1013.42 1013.69 1013.94 1014.24 1014.60 1015.05 1015.55 1016.07 1016.57 1017.00 1017.33 1017.54 1017.64 1017.66 1017.64 1017.62 1017.62 1017.69 1017.80 1017.96 1018.14 1018.33 1018.50 1018.66 1018.80 1018.94 1019.09 1019.27 1019.49 1019.73 1020.00 1020.26 1020.51 1020.73 1020.92 1021.07 1021.20
1010.08 1010.85 1011.59 1012.24 1012.78 1013.20 1013.52 1013.79 1014.04 1014.32 1014.67 1015.09 1015.59 1016.11 1016.63 1017.08 1017.44 1017.68 1017.80 1017.83 1017.81 1017.78 1017.78 1017.84 1017.97 1018.16 1018.38 1018.62 1018.85 1019.05 1019.20 1019.33 1019.44 1019.54 1019.65 1019.79 1019.94 1020.12 1020.31 1020.49 1020.68 1020.84 1021.00
1010.33 1011.03 1011.72 1012.34 1012.87 1013.30 1013.64 1013.92 1014.17 1014.46 1014.79 1015.20 1015.68 1016.19 1016.71 1017.17 1017.55 1017.81 1017.96 1018.01 1018.00 1017.97 1017.97 1018.03 1018.16 1018.36 1018.62 1018.90 1019.16 1019.39 1019.56 1019.68 1019.74 1019.78 1019.80 1019.83 1019.89 1019.98 1020.10 1020.25 1020.42 1020.59 1020.77
1010.54 1011.15 1011.77 1012.35 1012.88 1013.34 1013.71 1014.03 1014.33 1014.62 1014.96 1015.36 1015.81 1016.30 1016.80 1017.27 1017.65 1017.93 1018.10 1018.17 1018.17 1018.15 1018.15 1018.20 1018.33 1018.54 1018.81 1019.10 1019.39 1019.64 1019.83 1019.94 1019.98 1019.96 1019.92 1019.87 1019.85 1019.86 1019.93 1020.03 1020.18 1020.36 1020.55
1010.65 1011.16 1011.70 1012.26 1012.79 1013.28 1013.72 1014.10 1014.45 1014.78 1015.14 1015.53 1015.96 1016.43 1016.90 1017.35 1017.73 1018.03 1018.22 1018.31 1018.33 1018.31 1018.31 1018.35 1018.47 1018.66 1018.92 1019.22 1019.52 1019.78 1019.98 1020.09 1020.13 1020.09 1020.00 1019.90 1019.82 1019.78 1019.80 1019.87 1020.00 1020.18 1020.38
1010.62 1011.04 1011.52 1012.05 1012.59 1013.13 1013.63 1014.09 1014.51 1014.90 1015.28 1015.68 1016.10 1016.54 1016.98 1017.41 1017.78 1018.08 1018.28 1018.40 1018.44 1018.44 1018.44 1018.47 1018.57 1018.74 1018.98 1019.27 1019.56 1019.82 1020.03 1020.15 1020.19 1020.14 1020.05 1019.93 1019.82 1019.74 1019.72 1019.77 1019.88 1020.05 1020.26
1010.49 1010.84 1011.26 1011.77 1012.32 1012.90 1013.47 1014.01 1014.51 1014.96 1015.38 1015.79 1016.19 1016.60 1017.02 1017.41 1017.77 1018.07 1018.29 1018.43 1018.50 1018.53 1018.54 1018.58 1018.66 1018.81 1019.02 1019.27 1019.54 1019.80 1020.00 1020.13 1020.18 1020.15 1020.06 1019.94 1019.82 1019.73 1019.69 1019.71 1019.80 1019.96 1020.16
1010.34 1010.63 1011.02 1011.49 1012.06 1012.67 1013.29 1013.90 1014.46 1014.97 1015.42 1015.83 1016.23 1016.61 1016.99 1017.36 1017.70 1018.01 1018.25 1018.42 1018.53 1018.59 1018.63 1018.68 1018.75 1018.87 1019.05 1019.27 1019.51 1019.74 1019.93 1020.07 1020.13 1020.12 1020.05 1019.94 1019.82 1019.72 1019.66 1019.66 1019.73 1019.86 1020.05
1010.25 1010.52 1010.88 1011.34 1011.89 1012.51 1013.17 1013.81 1014.41 1014.95 1015.42 1015.84 1016.21 1016.57 1016.91 1017.25 1017.58 1017.89 1018.15 1018.37 1018.53 1018.64 1018.72 1018.78 1018.86 1018.97 1019.11 1019.29 1019.49 1019.69 1019.86 1019.98 1020.05 1020.06 1020.01 1019.92 1019.81 1019.71 1019.63 1019.61 1019.64 1019.74 1019.90
1010.31 1010.58 1010.92 1011.36 1011.89 1012.50 1013.15 1013.80 1014.41 1014.96 1015.43 1015.83 1016.17 1016.49 1016.80 1017.11 1017.43 1017.74 1018.03 1018.28 1018.50 1018.66 1018.79 1018.89 1018.98 1019.08 1019.20 1019.33 1019.48 1019.64 1019.78 1019.89 1019.95 1019.97 1019.93 1019.86 1019.76 1019.66 1019.58 1019.52 1019.52 1019.58 1019.70
Thickness
5800 5795 5782 5780 5779 5778 5777 5776 5774 5773 5771 5769 5767 5765 5764 5763 5762 5761 5759 5759 5758 5757 5756 5755 5754 5753 5752 5752 5751 5750 5749 5747 5747 5745 5744 5743 5741 5740 5740 5739 5740 5738 5735
5803 5794 5781 5778 5777 5776 5774 5773 5772 5770 5768 5766 5764 5763 5762 5761 5760 5759 5758 5757 5756 5755 5754 5753 5752 5751 5750 5749 5748 5747 5746 5745 5744 5743 5742 5740 5739 5738 5737 5737 5738 5736 5733
5801 5791 5780 5777 5775 5773 5772 5770 5769 5767 5765 5764 5762 5761 5760 5759 5758 5757 5756 5755 5754 5753 5752 5751 5750 5748 5747 5746 5745 5744 5743 5742 5741 5741 5741 5741 5738 5735 5735 5734 5734 5732 5731
5798 5790 5782 5775 5772 5771 5769 5768 5766 5765 5763 5761 5760 5759 5758 5757 5756 5755 5754 5753 5752 5751 5749 5748 5747 5746 5745 5744 5743 5742 5741 5740 5739 5740 5743 5741 5738 5733 5732 5732 5731 5730 5729
5795 5788 5779 5773 5770 5768 5766 5765 5763 5762 5760 5759 5758 5757 5756 5755 5754 5753 5752 5751 5750 5748 5747 5745 5744 5743 5742 5741 5740 5739 5738 5737 5738 5741 5741 5739 5735 5731 5730 5729 5729 5728 5727
5791 5785 5776 5770 5767 5765 5763 5762 5760 5759 5758 5757 5756 5754 5754 5753 5752 5751 5749 5748 5747 5746 5744 5742 5741 5740 5739 5738 5737 5736 5736 5736 5738 5741 5739 5737 5733 5729 5728 5727 5726 5726 5725
5788 5783 5774 5767 5764 5762 5760 5759 5758 5757 5756 5754 5753 5752 5751 5750 5749 5748 5747 5745 5744 5743 5741 5739 5738 5737 5736 5736 5735 5734 5734 5735 5740 5739 5737 5735 5731 5727 5726 5725 5724 5723 5723
5787 5781 5771 5764 5761 5759 5757 5756 5755 5754 5753 5752 5751 5750 5749 5748 5747 5745 5744 5743 5741 5740 5738 5737 5735 5734 5734 5733 5732 5732 5732 5733 5737 5737 5735 5732 5726 5724 5723 5722 5721 5721 5721
5785 5780 5770 5764 5759 5756 5755 5754 5753 5752 5751 5750 5749 5748 5747 5745 5744 5743 5741 5740 5739 5737 5736 5734 5733 5732 5731 5731 5730 5730 5730 5732 5737 5735 5733 5729 5723 5722 5720 5720 5719 5718 5718
5782 5778 5771 5766 5761 5757 5754 5751 5750 5749 5748 5748 5747 5746 5744 5743 5742 5740 5739 5737 5736 5735 5734 5732 5731 5730 5730 5729 5728 5728 5728 5730 5736 5734 5731 5726 5721 5719 5718 5717 5716 5716 5716
5775 5774 5770 5765 5760 5758 5755 5751 5749 5747 5746 5745 5745 5743 5743 5745 5743 5740 5738 5735 5734 5733 5732 5731 5729 5729 5729 5728 5727 5727 5728 5734 5734 5733 5728 5722 5719 5717 5716 5715 5714 5714 5714
5768 5767 5766 5763 5758 5757 5755 5750 5749 5748 5746 5747 5746 5744 5744 5743 5742 5741 5735 5734 5732 5731 5730 5729 5729 5728 5730 5732 5729 5728 5732 5732 5732 5729 5724 5719 5716 5715 5713 5712 5712 5712 5711
5766 5763 5762 5759 5755 5755 5753 5750 5749 5749 5746 5745 5744 5743 5742 5741 5740 5739 5737 5734 5732 5731 5732 5730 5731 5733 5733 5732 5731 5732 5731 5732 5731 5729 5722 5717 5714 5713 5711 5710 5710 5710 5709
5762 5759 5758 5755 5751 5750 5750 5750 5748 5748 5746 5745 5742 5741 5740 5740 5739 5738 5736 5735 5734 5733 5731 5732 5731 5730 5730 5730 5730 5730 5729 5730 5729 5726 5719 5715 5713 5711 5710 5709 5708 5708 5708
5756 5753 5751 5750 5747 5746 5745 5747 5747 5746 5746 5744 5741 5739 5738 5737 5737 5736 5734 5733 5734 5732 5731 5729 5730 5729 5728 5728 5728 5727 5727 5726 5725 5724 5719 5714 5712 5710 5708 5708 5707 5707 5706
5753 5750 5748 5745 5743 5741 5742 5743 5744 5745 5742 5743 5740 5738 5736 5736 5734 5733 5732 5731 5731 5731 5730 5729 5729 5728 5728 5728 5727 5726 5725 5724 5722 5720 5720 5714 5711 5709 5708 5707 5706 5706 5705
5752 5749 5745 5742 5740 5738 5739 5739 5740 5741 5741 5740 5738 5736 5734 5734 5732 5731 5731 5730 5730 5729 5727 5727 5727 5728 5728 5728 5726 5725 5724 5722 5721 5719 5718 5716 5713 5709 5708 5707 5706 5705 5705
5751 5746 5744 5741 5737 5736 5736 5736 5738 5739 5738 5738 5736 5734 5732 5732 5730 5729 5730 5730 5728 5729 5729 5728 5728 5729 5728 5728 5726 5725 5724 5721 5720 5718 5718 5715 5714 5713 5709 5706 5705 5705 5704
5749 5745 5742 5740 5737 5736 5735 5733 5734 5735 5735 5736 5735 5733 5731 5730 5729 5728 5729 5728 5727 5728 5729 5729 5728 5728 5727 5726 5726 5724 5724 5723 5720 5719 5717 5716 5714 5712 5711 5707 5705 5704 5704
5747 5743 5741 5738 5735 5734 5732 5731 5731 5732 5733 5733 5733 5731 5730 5729 5728 5728 5727 5726 5728 5728 5727 5726 5724 5724 5725 5725 5728 5725 5724 5723 5722 5720 5719 5717 5715 5713 5712 5710 5708 5705 5704
5745 5741 5739 5736 5734 5733 5731 5730 5729 5730 5730 5731 5731 5730 5729 5728 5727 5727 5729 5726 5727 5728 5726 5726 5726 5724 5725 5725 5724 5722 5722 5723 5721 5719 5719 5717 5716 5714 5712 5710 5710 5708 5706
5744 5741 5738 5737 5736 5734 5733 5731 5730 5730 5729 5730 5729 5728 5728 5727 5726 5727 5727 5727 5727 5725 5724 5725 5723 5726 5726 5725 5724 5721 5717 5716 5717 5721 5719 5717 5716 5715 5713 5712 5710 5707 5707
5745 5742 5741 5738 5736 5734 5733 5731 5728 5726 5727 5727 5726 5727 5727 5727 5727 5727 5726 5728 5726 5727 5726 5724 5724 5723 5724 5724 5726 5724 5719 5716 5716 5718 5717 5717 5715 5715 5714 5712 5710 5708 5707
5747 5744 5741 5739 5736 5734 5733 5731 5728 5726 5726 5728 5728 5728 5726 5726 5726 5725 5725 5725 5726 5728 5725 5725 5726 5725 5723 5724 5723 5723 5724 5724 5718 5715 5716 5717 5715 5714 5714 5714 5712 5709 5708
5749 5745 5742 5739 5737 5735 5733 5731 5728 5729 5729 5729 5728 5726 5725 5725 5725 5725 5725 5725 5724 5726 5725 5724 5723 5724 5725 5725 5725 5724 5721 5720 5720 5718 5714 5714 5716 5716 5715 5713 5712 5711 5708
5749 5745 5742 5738 5735 5734 5732 5731 5729 5730 5729 5727 5726 5725 5725 5725 5725 5725 5725 5724 5724 5725 5723 5723 5723 5723 5724 5723 5724 5725 5723 5721 5720 5719 5715 5713 5714 5716 5714 5713 5712 5711 5709